Regional Weather Roundup
Issued by NWS

Home | Current Version | Previous Version | Text Only | Print | Product List | Glossary On
Versions: 1 2 3 4 5 6 7 8 9 10 11 12 13 14 15 16 17 18 19 20 21 22 23 24 25 26 27 28 29 30 31 32 33 34 35 36 37 38 39 40 41 42 43 44 45 46 47 48 49 50
189
ASUS44 KLIX 231401
RWRLA
LOUISIANA WEATHER ROUNDUP
NATIONAL WEATHER SERVICE NEW ORLEANS LA
900 AM CDT WED APR 23 2014

NOTE: "FAIR" INDICATES FEW OR NO CLOUDS BELOW 12,000 FEET WITH NO
      SIGNIFICANT WEATHER AND/OR OBSTRUCTIONS TO VISIBILITY.
      SKY/WX - SKY CONDITION AND SIGNIFICANT WEATHER.
      TMP - AIR TEMPERATURE.    DP   - DEWPOINT TEMPERATURE.
      RH  - RELATIVE HUMIDITY.  PRES - PRESSURE.
      HX  - HEAT INDEX.         WCI  - WIND CHILL INDEX.

*  THESE STATIONS ARE NOT NWS OR FAA STATIONS AND ARE NOT UNDER
   NWS QUALITY CONTROL.

LAZ040-048-061>063-065-066-069-231500-
SOUTHEAST LOUISIANA

CITY           SKY/WX    TMP DP  RH WIND       PRES   REMARKS
N.O. AUDUBON     N/A     76  62  62 MISG        N/A
N.O. INTL ARPT SUNNY     72  63  73 NE8       29.98S
N.O. LAKEFRONT SUNNY     70  62  76 NE6       29.99R
N.O. DOWNTOWN* FAIR      72  59  64 N6        29.99S
SLIDELL        SUNNY     70  61  73 NE7       29.97S
BATON ROUGE    SUNNY     71  61  70 NE7       29.99R
BOOTHVILLE     SUNNY     70  66  87 VRB5      29.98S
BELLE CHASSE   SUNNY     72  62  71 VRB3      29.98R
BOGALUSA*        N/A     69  59  70 NE5       30.00S
GALLIANO*      SUNNY     64  62  96 NW5       29.99R
NEW ROADS*     NOT AVBL
GONZALES*      FAIR      71  62  72 NE7       29.98S
HAMMOND*       SUNNY     72  57  60 CALM      30.00S
HOUMA*         SUNNY     70  64  83 N6        29.99S
PORT FOURCHON* SUNNY     73  64  73 NE5       30.00R

$$

LAZ041-044-053-054-231500-
SOUTHWEST LOUISIANA

CITY           SKY/WX    TMP DP  RH WIND       PRES   REMARKS
LAKE CHARLES   PTSUNNY   69  68  96 SE3       29.98S FOG
LAFAYETTE      SUNNY     70  63  78 CALM      29.99R
PATTERSON      SUNNY     72  64  78 NE8       30.01F
SALT POINT       N/A     73  65  75 VRB3      29.98S
NEW IBERIA     SUNNY     72  63  73 E6        30.00R
CHENAULT AIRPK FOG       68  68 100 CALM      29.99R VSB 1

$$

LAZ027-028-231500-
CENTRAL LOUISIANA

CITY           SKY/WX    TMP DP  RH WIND       PRES   REMARKS
FORT POLK      SUNNY     70  61  73 CALM      29.99R
ALEXANDRIA INT SUNNY     68  62  81 CALM      29.98S
ALEXANDRIA     SUNNY     70  61  73 CALM      30.00R

$$

LAZ001-002-231500-
NORTHWEST LOUISIANA

CITY           SKY/WX    TMP DP  RH WIND       PRES   REMARKS
SHREVEPORT     SUNNY     70  61  73 SE5       29.98R
BARKSDALE AFB  SUNNY     69  61  76 S8        29.98S
DTN SHREVEPORT MOSUNNY   69  61  75 SE5       29.98S

$$

LAZ014-016-231500-
NORTHEAST LOUISIANA

CITY           SKY/WX    TMP DP  RH WIND       PRES   REMARKS
MONROE         SUNNY     68  56  65 VRB3      30.02R
TALLULAH       SUNNY     67  54  63 E6        30.01S

$$




USA.gov is the U.S. government's official web portal to all federal, state and local government web resources and services.